Location: Shenandoah County Park
(38.9356°N, 78.4524°W)
Time: 09:38:28
(UTC-05:00)

Vanguard 1 Rocket - Visible Passes

Search period start: 27 January 2023 00:00
Search period end: 06 February 2023 00:00
Orbit: 650 x 4225 km, 34.3° (Epoch: 26 January)

Date Brightness Start Highest point End Pass type
(mag) Time Alt. Az. Time Alt. Az. Time Alt. Az.
27 Jan 10.9 18:26:58 10° W 18:49:58 66° SSW 19:14:08 10° SE visible
27 Jan 11.2 20:58:56 10° W 21:20:29 36° SW 21:35:21 17° S visible
28 Jan 10.9 17:13:48 10° W 17:34:32 74° SSW 18:00:31 10° ESE visible
28 Jan 11.1 19:43:33 10° W 20:06:33 49° SW 20:28:02 10° SSE visible
28 Jan 11.5 22:20:58 10° W 22:34:43 18° SW 22:46:37 10° SSW visible
29 Jan 11.0 18:29:31 10° W 18:51:48 60° SSW 19:15:56 10° SE visible
29 Jan 11.5 21:02:02 10° W 21:21:49 30° SW 21:39:19 10° S visible
30 Jan 11.0 17:16:24 10° W 17:36:35 69° SSW 18:02:30 10° ESE visible
30 Jan 11.3 19:46:16 10° W 20:08:04 42° SW 20:29:14 10° SSE visible
30 Jan 11.8 22:27:43 10° WSW 22:36:00 13° WSW 22:43:44 10° SW visible
31 Jan 11.2 18:32:07 10° W 18:53:33 54° SSW 19:17:28 10° SE visible
31 Jan 11.6 21:05:43 10° W 21:23:09 24° SW 21:39:18 10° S visible
01 Feb 11.1 17:19:01 10° W 17:38:36 64° SSW 18:04:18 10° SE visible
01 Feb 11.5 19:49:13 10° W 20:09:33 36° SW 20:30:02 10° SSE visible
02 Feb 11.3 18:34:50 10° W 18:55:17 48° SW 19:18:43 10° SSE visible
02 Feb 11.8 21:10:21 10° W 21:24:33 18° SW 21:38:13 10° SSW visible
03 Feb 11.2 17:21:42 10° W 17:40:35 58° SSW 18:05:50 10° SE visible
03 Feb 11.7 19:52:31 10° W 20:11:04 29° SW 20:30:18 10° S visible
04 Feb 11.5 18:37:43 10° W 18:56:59 41° SW 19:19:35 10° SSE visible
04 Feb 12.0 21:17:15 10° WSW 21:26:03 13° SW 21:34:46 10° SSW visible
05 Feb 11.3 17:24:27 10° W 17:42:32 52° SSW 18:07:07 10° SE visible
05 Feb 11.9 19:56:25 10° W 20:12:39 23° SW 20:29:49 10° S visible
